Epoch 2002 July 25.0 TT = JDT 2452480.5
T 2002 July 15.98534 TT MPCW
q 1.5213080 (2000.0) P Q
n 0.14827540 Peri. 184.74693 +0.99814126 +0.00015883
a 3.5352759 Node 174.10090 -0.01363915 +0.97521336
e 0.5696777 Incl. 36.36731 -0.05939693 -0.22126654
P 6.65
From 55 observations 2002 Aug. 17-2015 Aug. 10, mean residual 0".6.